CST,Max TemperatureF,Mean TemperatureF,Min TemperatureF,Max Dew PointF,MeanDew PointF,Min DewpointF,Max Humidity, Mean Humidity, Min Humidity, Max Sea Level PressureIn, Mean Sea Level PressureIn, Min Sea Level PressureIn, Max VisibilityMiles, Mean VisibilityMiles, Min VisibilityMiles, Max Wind SpeedMPH, Mean Wind SpeedMPH, Max Gust SpeedMPH,PrecipitationIn, CloudCover, Events, WindDirDegrees
2012-12-1,66,58,50,50,47,44,80,66,54,30.17,30.11,30.03,10,10,10,20,12,30,0.00,4,,183
2012-12-2,64,62,60,61,56,48,88,79,60,30.10,30.06,30.02,10,10,8,24,17,33,0.00,7,,200
2012-12-3,68,64,61,60,57,53,90,77,61,30.09,30.04,29.99,10,10,10,26,15,34,0.00,5,,198
2012-12-4,64,52,37,59,51,35,96,84,68,30.31,30.11,29.98,10,9,2,23,12,30,0.25,5,Rain,297
2012-12-5,57,44,30,40,35,30,96,77,44,30.38,30.29,30.17,10,9,2,9,2,,0.00,0,,74
2012-12-6,55,42,30,50,41,30,96,82,62,30.15,30.03,29.95,10,9,5,7,1,,0.00,7,,140
2012-12-7,62,56,51,55,52,50,100,91,67,29.94,29.89,29.82,10,5,0,14,3,,0.01,8,Fog-Rain,197
2012-12-8,54,51,48,52,47,44,100,90,82,29.99,29.94,29.85,10,6,1,9,5,,0.01,8,Rain,11
2012-12-9,59,52,45,58,51,39,100,94,80,29.92,29.80,29.72,10,4,1,16,6,23,0.98,8,Rain-Thunderstorm,294
2012-12-10,43,36,30,38,25,19,82,73,64,30.11,29.96,29.85,10,10,9,16,10,23,0.00,7,Snow,323
2012-12-11,39,31,23,23,21,18,85,68,45,30.27,30.18,30.11,10,10,10,12,3,,0.00,2,,200
2012-12-12,48,36,24,28,23,20,92,68,32,30.39,30.34,30.28,10,10,7,7,3,,0.00,0,,175
2012-12-13,52,38,23,28,24,19,92,66,35,30.40,30.33,30.25,10,10,10,12,5,,0.00,0,,170
2012-12-14,55,41,27,35,29,24,89,58,33,30.28,30.19,30.04,10,10,10,15,6,,0.00,1,,172
2012-12-15,59,52,46,54,49,38,94,84,61,30.01,29.81,29.71,10,8,2,24,15,36,0.10,8,Rain,186
2012-12-16,57,46,35,53,43,36,100,87,59,29.78,29.73,29.67,10,8,0,12,5,,0.00,1,Fog,241
2012-12-17,45,42,39,43,41,36,100,93,81,29.83,29.71,29.65,10,4,0,13,4,16,0.01,8,Fog-Rain,320
2012-12-18,55,42,30,42,36,29,92,73,51,29.90,29.84,29.76,10,10,7,24,8,31,0.00,1,,207
2012-12-19,60,47,34,46,38,30,93,73,53,30.01,29.88,29.60,10,9,6,21,6,30,0.00,4,,93
2012-12-20,62,46,30,55,37,17,90,68,52,29.96,29.58,29.31,10,9,2,30,21,46,0.33,7,Rain-Snow-Thunderstorm,232
2012-12-21,39,34,27,17,13,11,61,47,32,30.31,30.19,29.99,10,10,10,24,15,33,0.00,0,,298
2012-12-22,46,32,19,27,19,12,82,54,30,30.34,30.19,30.02,10,10,10,14,6,,0.00,0,,187
2012-12-23,61,50,39,46,36,27,87,62,39,30.01,29.93,29.84,10,10,6,10,7,,0.00,4,,204
2012-12-24,46,36,26,43,32,20,100,80,70,30.14,29.94,29.78,10,6,2,17,6,22,0.00,7,,331
2012-12-25,36,31,26,27,24,19,80,74,65,30.22,30.09,29.85,10,7,4,21,10,29,0.00,8,Snow,30
2012-12-26,33,32,30,29,26,22,93,83,69,30.18,29.89,29.75,10,4,0,23,18,33,0.19,8,Fog-Snow-Thunderstorm,339
2012-12-27,32,30,27,25,23,21,86,76,64,30.25,30.16,30.10,10,10,8,7,4,,0.00,7,,105
2012-12-28,37,32,27,31,29,23,96,86,73,30.10,29.95,29.87,10,4,0,8,3,,0.41,7,Fog-Rain-Snow,21
2012-12-29,32,22,10,30,24,8,93,86,72,30.40,30.12,29.88,10,4,0,15,9,21,0.03,7,Fog-Snow,290
2012-12-30,34,21,8,25,13,2,92,79,61,30.52,30.42,30.31,10,5,0,13,4,,0.00,0,Fog,188
2012-12-31,36,34,33,32,30,25,96,86,67,30.30,30.16,30.08,10,5,0,13,7,,0.12,7,Fog-Rain-Snow,198